Temp
13 13 12 12 12 13 12 12 13 13 13 14 13 13 12 12 12 13 13 12 12 11
11 12 12 13 12 13 13 13 13 13 14 14 14 13 13 13 13 13 13 12 12 11
11 13 14 13 13 13 13 13 13 14 14 14 14 13 13 13 13 13 13 12 11 11
13 13 13 13 13 13 13 14 14 13 14 14 13 13 13 12 13 12 12 11 11 11
12 13 13 13 13 13 13 13 13 13 13 13 13 12 12 12 12 11 12 11 10 10
12 11 11 11 11 11 11 11 11 11 12 12 12 11 10 10 10 10 10 9 9 10
10 10 10 10 10 10 10 10 10 10 10 10 9 9 9 9 9 9 9 9 9 9
9 9 9 9 9 9 9 9 9 9 9 9 9 8 8 8 8 8 8 8 9 9
8 9 9 9 8 8 8 7 7 8 8 8 8 8 8 8 8 8 8 8 8 8
7 7 7 7 8 8 7 7 7 7 7 7 7 7 7 7 7 7 7 7 7 7
8 7 7 6 7 6 6 6 5 6 6 6 6 6 6 6 6 6 6 6 7 6
5 5 5 5 5 5 5 4 4 4 4 5 5 5 6 5 5 5 5 5 5 5
6 5 4 3 3 3 3 3 3 3 3 4 4 4 5 5 4 5 5 4 4 4
4 3 2 2 3 3 2 2 3 3 3 3 3 3 3 3 4 4 4 4 4 4
Height
1477 1479 1482 1485 1486 1490 1491 1493 1495 1495 1497 1499 1500 1502 1504 1505 1504 1505 1504 1507 1510 1513
1475 1476 1478 1480 1483 1485 1487 1488 1490 1490 1491 1492 1493 1495 1496 1497 1497 1498 1499 1502 1504 1507
1474 1474 1476 1478 1479 1481 1482 1483 1483 1483 1485 1486 1487 1489 1490 1491 1493 1493 1495 1498 1498 1501
1472 1473 1474 1475 1476 1477 1477 1477 1478 1478 1479 1480 1482 1483 1484 1486 1486 1490 1489 1494 1495 1496
1471 1472 1473 1472 1473 1473 1473 1473 1474 1474 1473 1474 1475 1477 1478 1478 1482 1483 1484 1487 1491 1492
1468 1470 1471 1470 1470 1469 1469 1469 1468 1469 1469 1470 1471 1470 1473 1474 1477 1478 1480 1482 1485 1486
1468 1469 1469 1468 1466 1466 1466 1465 1465 1464 1465 1465 1469 1467 1469 1472 1472 1474 1475 1477 1479 1479
1466 1467 1467 1464 1464 1463 1463 1461 1460 1459 1461 1462 1463 1464 1465 1467 1468 1470 1471 1472 1473 1473
1465 1464 1465 1462 1460 1461 1458 1458 1458 1457 1455 1454 1457 1458 1461 1464 1464 1464 1465 1467 1467 1471
1465 1460 1461 1458 1458 1457 1455 1453 1454 1454 1452 1452 1452 1453 1455 1458 1457 1458 1459 1461 1461 1462
1458 1457 1457 1457 1450 1453 1452 1446 1448 1449 1448 1446 1445 1447 1450 1451 1452 1454 1455 1456 1456 1455
1457 1453 1450 1448 1449 1447 1445 1444 1442 1441 1441 1437 1438 1444 1445 1444 1445 1447 1448 1450 1452 1451
1451 1449 1446 1444 1442 1441 1441 1441 1435 1433 1432 1431 1432 1437 1435 1437 1437 1436 1444 1444 1443 1444
1446 1444 1442 1440 1436 1432 1430 1432 1429 1424 1425 1427 1425 1427 1428 1431 1430 1430 1435 1433 1435 1438
Wind_Speed
12 17 20 24 21 25 27 27 26 28 26 29 33 32 29 28 25 27 25 24 23 22
29 24 20 18 25 23 21 19 22 24 24 26 29 29 29 28 27 28 25 25 25 24
12 13 16 18 18 20 20 22 23 22 25 24 24 25 26 27 27 23 24 24 25 25
7 8 10 12 14 17 18 20 20 21 23 23 24 26 27 26 26 26 25 24 26 26
4 7 10 13 16 17 18 18 19 20 21 23 24 26 28 28 29 30 29 30 29 27
6 7 9 11 12 14 16 17 18 19 20 22 23 23 25 26 28 30 31 28 26 26
7 9 10 13 14 14 14 16 17 18 19 20 21 20 21 24 25 26 26 27 27 26
8 9 9 10 13 15 16 15 16 17 18 19 21 21 23 25 25 26 26 26 25 25
12 13 15 13 13 14 15 17 18 18 19 19 20 20 22 23 24 24 25 25 24 25
14 14 16 16 15 15 15 17 19 20 20 20 21 21 22 24 25 26 26 26 25 25
21 19 18 18 18 19 19 17 20 22 22 22 22 22 23 24 27 27 27 26 26 24
21 22 22 20 19 20 21 21 23 22 22 23 23 23 23 24 26 27 26 26 25 24
26 24 23 23 23 21 20 21 21 24 24 24 24 25 24 24 26 26 27 27 27 27
25 25 24 26 23 23 23 21 20 22 23 26 26 26 26 27 28 29 30 28 27 26
Wind_Direction
233 222 237 243 228 244 241 242 246 252 259 260 260 259 253 241 240 244 250 240 229 236
251 252 256 255 246 250 249 250 247 246 253 253 251 252 251 249 243 240 248 236 229 241
228 238 231 231 234 234 233 239 248 250 253 252 251 250 246 250 244 242 239 235 229 229
243 249 250 250 250 251 250 251 251 251 254 255 251 247 248 249 236 236 233 235 232 237
244 253 255 252 254 257 262 259 258 258 256 257 253 250 246 246 236 235 238 240 238 240
303 288 279 274 272 271 265 264 263 262 260 258 256 253 251 247 244 242 241 238 239 243
338 319 305 297 292 282 274 269 265 262 260 258 259 255 252 247 243 240 238 239 242 245
357 340 323 309 298 290 284 277 269 267 265 260 258 254 249 248 247 242 242 243 246 248
345 339 332 328 315 292 280 278 273 268 265 263 259 252 250 247 246 245 243 245 245 246
322 326 322 319 310 303 292 275 270 266 262 262 259 257 254 252 250 249 249 248 245 245
320 315 309 307 312 304 294 284 273 267 264 264 263 260 256 253 251 248 248 248 248 247
312 314 314 309 301 298 295 286 276 269 266 264 263 260 253 249 248 248 247 246 245 245
304 303 302 300 302 297 290 280 274 273 271 265 262 259 257 251 249 246 249 248 247 246
293 298 302 302 301 299 300 294 282 286 277 269 265 260 255 253 252 250 247 246 246 246